FW8702 Weather Reports


Display with metric or nautical units.
time (UTC)temp
F
wind
direction
speed
MPH
gust
MPH
rain 1hr
in
rain 24hr
in
rain mn
in
humidity
%
barometer
mb
20260504201510 60 213 0.0 0.0 0.00 0.00 0.00 73 1017.9
20260504200026 60 213 0.0 0.0 0.00 0.00 0.00 73 1017.9
20260504194553 61 213 0.0 0.0 0.00 0.00 0.00 70 1017.6
20260504193011 61 206 0.0 0.0 0.00 0.00 0.00 69 1017.6
20260504191529 62 206 0.0 0.0 0.00 0.00 0.00 70 1017.4
20260504190026 63 206 0.0 0.0 0.00 0.00 0.00 70 1017.4
20260504184544 64 206 0.0 0.0 0.00 0.00 0.00 68 1017.3
20260504183107 65 206 0.0 0.0 0.00 0.00 0.00 65 1017.2
20260504181517 65 206 0.0 0.0 0.00 0.00 0.00 65 1017.1
20260504180012 66 206 0.0 0.0 0.00 0.00 0.00 63 1017.1
20260504174512 67 230 0.0 0.0 0.00 0.00 0.00 61 1017.0
20260504173024 68 230 0.0 0.0 0.00 0.00 0.00 54 1017.2
20260504171555 68 230 0.0 0.0 0.00 0.00 0.00 55 1017.1
20260504081528 63 178 0.0 0.0 0.00 0.00 0.00 68 1019.6
20260504050023 52 237 0.0 0.0 0.00 0.00 0.00 87 1018.5
20260504044555 52 237 0.0 0.0 0.00 0.00 0.00 87 1018.6
20260504043017 52 237 0.0 0.0 0.00 0.00 0.00 86 1018.6
20260504041530 52 237 0.0 0.0 0.00 0.00 0.00 86 1018.5
20260504040030 52 237 0.0 0.0 0.00 0.00 0.00 86 1018.4
20260504034554 53 237 0.0 0.0 0.00 0.00 0.00 86 1018.3
20260504033009 53 237 0.0 0.0 0.00 0.00 0.00 85 1018.2
20260504031547 53 237 0.0 0.0 0.00 0.00 0.00 85 1018.5
20260504030112 53 237 0.0 0.0 0.00 0.00 0.00 83 1018.5
20260504024524 54 237 0.0 0.0 0.00 0.00 0.00 83 1018.5
20260504023018 54 237 0.0 0.0 0.00 0.00 0.00 83 1018.6
20260504021547 54 237 0.0 0.0 0.00 0.00 0.00 82 1018.5
20260504020050 54 237 0.0 0.0 0.00 0.00 0.00 83 1018.5
20260504014512 54 237 0.0 0.0 0.00 0.00 0.00 84 1018.4
20260504013041 54 237 0.0 0.0 0.00 0.00 0.00 83 1018.6
20260504011508 54 237 0.0 0.0 0.00 0.00 0.00 83 1018.5
20260504010008 54 237 0.0 0.0 0.00 0.00 0.00 83 1018.6
20260504004511 55 237 0.0 0.0 0.00 0.00 0.00 83 1018.6
20260504003043 55 237 0.0 0.0 0.00 0.00 0.00 83 1018.9
20260504001554 55 237 0.0 0.0 0.00 0.00 0.00 82 1019.0
20260504000004 55 146 0.0 0.0 0.00 0.00 0.00 82 1019.0
20260503234514 56 146 0.0 0.0 0.00 0.00 0.00 81 1019.2
20260503233043 56 146 0.0 0.0 0.00 0.00 0.00 81 1019.1
20260503231550 56 146 0.0 0.0 0.00 0.00 0.00 81 1019.3
20260503230001 56 146 0.0 0.0 0.00 0.00 0.00 79 1019.4
20260503224601 56 146 0.0 0.0 0.00 0.00 0.00 79 1019.3
20260503223024 57 146 0.0 0.0 0.00 0.00 0.00 78 1019.3
20260503221541 57 146 0.0 0.0 0.00 0.00 0.00 78 1019.3
20260503220043 57 146 0.0 0.0 0.00 0.00 0.00 78 1019.1
20260503214507 58 146 0.0 0.0 0.00 0.00 0.00 75 1019.2
20260503213034 58 146 0.0 0.0 0.00 0.00 0.00 74 1019.1
20260503211606 58 146 0.0 0.0 0.00 0.00 0.00 75 1019.1
20260503210105 58 178 0.0 0.0 0.00 0.00 0.00 76 1019.0
20260503204515 58 178 0.0 0.0 0.00 0.00 0.00 76 1019.0
20260503203045 59 178 0.0 1.0 0.00 0.00 0.00 75 1018.9